GONETS M 17

导读

GONETS M 17是独联体(CIS)发射的低轨通信卫星,隶属于俄罗斯“信使”(GONETS)卫星移动通信系统,于北京时间2020年9月28日8时发射升空。该卫星主要为俄罗斯及周边区域提供全天候移动通信服务,覆盖偏远地区与海上用户,可支持语音、数据传输,补充地面通信网络盲区,进一步完善了“信使”系统的全球卫星通信覆盖能力,服务军民领域通信需求。

基本信息
目录编号:
46486
目录名称:
GONETS M 17
国际标识:
2020-068A
轨道中心:
EARTH
卫星名称:
GONETS M 17
卫星全名:
--
卫星状态:
在轨 (已飞行2088 天)
发射日期:
2020-09-28 UTC
国别 :
俄罗斯(独联体) (CIS)
星等 :
--
轨道信息
数据来源 国际轨道数据 AOE轨道数据
星历时间 2026-06-17T13:01:34+0800
9小时前
查看轨道信息
2026-06-16T07:00:00+0800
1天前
查看轨道信息
半长轴 7872.584km 7872.581km
偏心率 0.0023094 0.0023061
轨道倾角 82.498° 82.501°
近地点辐角 37.473° 39.716°
升交点赤经 347.488° 348.267°
平近点角 322.795° 125.478°
近地点 1476.266km 1476.289km
远地点 1512.628km 1512.599km
周期 115.861分钟 115.860分钟
每日圈数 12.428732 12.428741
详细信息
使用方式:
暂无
2D轨道图
3D轨道图
轨道高度分析图
轨道倾角分析图
轨道综合分析图
查看轨道综合分析图